Lincoln, NE

8:21 AM CST on December 10, 2016 (GMT -0600)
Lincoln Municipal

Weather History for KLNK - October, 2012

Change the Weather History Date:

Friday, October 26, 2012

  Actual Average Record
Temperature  
Mean Temperature 32 °F 49 °F  
Max Temperature 43 °F 62 °F 86 °F (1927)
Min Temperature 21 °F 37 °F 19 °F (1997)
Degree Days  
Heating Degree Days 33 16  
Month to date heating degree days 363 294  
Since 1 July heating degree days 473 392  
Cooling Degree Days 0 0  
Month to date cooling degree days 0 12  
Year to date cooling degree days 1491 1170  
Moisture  
Dew Point 24 °F    
Average Humidity 67    
Maximum Humidity 88    
Minimum Humidity 46    
Precipitation  
Precipitation 0.00 in 0.06 in 1.57 in (1901)
Month to date precipitation 1.92 1.71  
Year to date precipitation 17.49 26.31  
Snow  
Snow 0.00 in 0.10 in - ()
Month to date snowfall 0.0 0.5  
Since 1 July snowfall 0.0 0.5  
Snow Depth 0.00 in    
Sea Level Pressure  
Sea Level Pressure 30.48 in    
Wind  
Wind Speed 7 mph (NNW)    
Max Wind Speed 15 mph    
Max Gust Speed 18 mph    
Visibility 10 miles    
Events      
T = Trace of Precipitation, MM = Missing Value Source: NWS Daily Summary

Daily Weather History Graph

Daily Weather History Graph

Search for Another Location

Airport or City:

Trip Planner

Search our weather history database for the weather conditions in past years. The results will help you decide how hot, cold, wet, or windy it might be!

Date:

Astronomy

Oct. 26, 2012 Rise Set
Actual Time 7:51 AM CDT 6:30 PM CDT
Civil Twilight 7:23 AM CDT 6:58 PM CDT
Nautical Twilight 6:50 AM CDT 7:30 PM CDT
Astronomical Twilight 6:19 AM CDT 8:02 PM CDT
Moon 4:47 PM CDT (10/26) 4:47 AM CDT (10/26)
Length of Visible Light 11h 35m
Length of Day
10h 38m
Waxing Gibbous, 91% of the Moon is Illuminated
Oct 26
Waxing Gibbous
Oct 29
Full
Nov 6
Last Quarter
Nov 13
New
Nov 20
First Quarter

Hourly Weather History & Observations

Time (CDT) Temp. Windchill Dew Point Humidity Pressure Visibility Wind Dir Wind Speed Gust Speed Precip Events Conditions
12:31 AM 33.8 °F 26.4 °F 24.8 °F 70% 30.37 in 10.0 mi North 9.2 mph - N/A   Scattered Clouds
12:54 AM 33.8 °F 26.4 °F 24.8 °F 70% 30.37 in 10.0 mi North 9.2 mph - N/A   Clear
1:54 AM 32.0 °F 26.4 °F 25.0 °F 75% 30.42 in 10.0 mi West 5.8 mph - N/A   Clear
2:54 AM 30.9 °F 26.2 °F 24.1 °F 76% 30.45 in 10.0 mi West 4.6 mph - N/A   Clear
3:54 AM 30.9 °F 23.5 °F 24.1 °F 76% 30.45 in 10.0 mi WNW 8.1 mph - N/A   Clear
4:54 AM 30.0 °F 23.2 °F 24.1 °F 79% 30.47 in 10.0 mi NNW 6.9 mph - N/A   Partly Cloudy
5:54 AM 30.0 °F 26.5 °F 26.1 °F 85% 30.48 in 10.0 mi North 3.5 mph - N/A   Overcast
6:54 AM 34.0 °F 26.6 °F 27.0 °F 75% 30.49 in 10.0 mi North 9.2 mph - N/A   Overcast
7:54 AM 35.1 °F 27.9 °F 26.1 °F 70% 30.51 in 10.0 mi North 9.2 mph - N/A   Overcast
8:54 AM 36.0 °F 28.5 °F 25.0 °F 64% 30.53 in 10.0 mi North 10.4 mph - N/A   Overcast
9:54 AM 36.0 °F 28.5 °F 24.1 °F 62% 30.56 in 10.0 mi North 10.4 mph - N/A   Overcast
10:54 AM 37.0 °F 30.4 °F 24.1 °F 59% 30.57 in 10.0 mi North 9.2 mph - N/A   Overcast
11:54 AM 39.0 °F 32.8 °F 25.0 °F 57% 30.56 in 10.0 mi NNE 9.2 mph - N/A   Overcast
12:54 PM 41.0 °F 36.4 °F 25.0 °F 53% 30.55 in 10.0 mi North 6.9 mph 16.1 mph N/A   Mostly Cloudy
1:54 PM 41.0 °F 35.8 °F 24.1 °F 51% 30.53 in 10.0 mi NNW 8.1 mph - N/A   Overcast
2:54 PM 42.1 °F 36.1 °F 24.1 °F 49% 30.51 in 10.0 mi NW 10.4 mph 17.3 mph N/A   Overcast
3:54 PM 41.0 °F 35.2 °F 25.0 °F 53% 30.50 in 10.0 mi NNW 9.2 mph - N/A   Mostly Cloudy
4:54 PM 41.0 °F 35.8 °F 24.1 °F 51% 30.48 in 10.0 mi NW 8.1 mph - N/A   Scattered Clouds
5:54 PM 41.0 °F 35.2 °F 23.0 °F 49% 30.47 in 10.0 mi NNW 9.2 mph - N/A   Scattered Clouds
6:54 PM 34.0 °F 29.8 °F 23.0 °F 64% 30.47 in 10.0 mi North 4.6 mph - N/A   Clear
7:54 PM 36.0 °F 31.1 °F 23.0 °F 59% 30.48 in 10.0 mi NNW 5.8 mph - N/A   Clear
8:54 PM 28.0 °F 24.2 °F 21.9 °F 78% 30.50 in 8.0 mi NNW 3.5 mph - N/A   Clear
9:54 PM 26.1 °F 21.9 °F 21.0 °F 81% 30.49 in 10.0 mi NNW 3.5 mph - N/A   Clear
10:54 PM 25.0 °F 20.7 °F 21.0 °F 85% 30.48 in 10.0 mi NNW 3.5 mph - N/A   Clear
11:54 PM 24.8 °F - 21.2 °F 86% 30.44 in 10.0 mi Calm Calm - N/A   Clear